Regional Weather Roundup
Issued by NWS Albany, NY

Home | Current Version | Previous Version | Graphics & Text | Print | Product List | Glossary Off
Versions: 1 2 3 4 5 6 7 8 9 10 11 12 13 14 15 16 17 18 19 20 21 22 23 24 25 26 27 28 29 30 31 32 33 34 35 36 37 38 39 40 41 42 43 44 45 46 47 48 49 50

000
ASUS41 KALY 181810
RWRALY

NEW YORK STATE HOURLY WEATHER ROUNDUP
NATIONAL WEATHER SERVICE ALBANY NY
100 PM EST SAT FEB 18 2017

NOTE: "FAIR" INDICATES FEW OR NO CLOUDS BELOW 12,000 FEET WITH NO
SIGNIFICANT WEATHER AND/OR NO OBSTRUCTIONS TO VISIBILITY.

NYZ032-033-038>043-046>054-057>066-NYZ062>081-082-084-181900-
EAST


CITY           SKY/WX    TMP DP  RH WIND       PRES   REMARKS
ALBANY         MOSUNNY   44  22  41 S16       29.63F
GLENS FALLS    MOSUNNY   42  22  44 S8        29.60F
POUGHKEEPSIE   SUNNY     50  24  36 SW9       29.67F
NEWBURGH       SUNNY     52  30  43 SW12G23   29.69F
MONTGOMERY     SUNNY     48  28  46 SW15      29.67F
WHITE PLAINS   SUNNY     53  26  35 W9        29.70F
ISLIP          MOSUNNY   47  34  60 SW15G23   29.73F
NEW YORK CITY  MOSUNNY   56  29  35 SW12      29.72F
CENTRAL PARK   SUNNY     55  29  36 W8        29.74F
$$

NYZ005>009-017-018-044>046-055-056-181900-
CENTRAL


CITY           SKY/WX    TMP DP  RH WIND       PRES   REMARKS
FULTON         SUNNY     55  33  43 S10       29.55F
SYRACUSE       MOSUNNY   55  32  41 SW10      29.55F
ROME           SUNNY     49  28  44 SE3       29.59F
ELMIRA         SUNNY     65  35  33 SW9       29.59F
BINGHAMTON     SUNNY     49  29  46 SW8       29.62F
MONTICELLO     SUNNY     52  28  40 W12       29.67F
$$

NYZ026>034-041>043-087-181900-
NORTH


CITY           SKY/WX    TMP DP  RH WIND       PRES   REMARKS
WATERTOWN      SUNNY     52  34  50 SW17G24   29.50F
FORT DRUM      NOT AVBL
OGDENSBURG     FAIR      52  35  51 SW16G26   29.43F
MASSENA        SUNNY     48  33  56 S15G35    29.43F
SARANAC LAKE   SUNNY     47  36  65 SW14      29.46F
PLATTSBURGH    CLOUDY    39  23  52 SE17      29.48F WCI  30
$$

NYZ001>004-010>016-019>021-085-181900-
WEST


CITY           SKY/WX    TMP DP  RH WIND       PRES   REMARKS
NIAGARA FALLS  SUNNY     55  37  50 SW23G31   29.57F
BUFFALO        MOSUNNY   55  36  48 SW26G41   29.58F
DUNKIRK        SUNNY     61  36  39 SW20G37   29.61F
JAMESTOWN        N/A     54  34  47 SW10G18   29.66F
WELLSVILLE     SUNNY     60  33  36 SW15G23   29.64F
ROCHESTER      MOSUNNY   61  38  42 W22G29    29.54F
PENN YAN       SUNNY     61  35  37 SW16      29.58F
$$

             KEY
       WCI = WIND CHILL INDEX
       VSB = VISIBILITY
       HX  = HEAT INDEX
$$



USA.gov is the U.S. government's official web portal to all federal, state and local government web resources and services.